Content
SEND FEEDBACK

Daily
Averages
Monthly
Summary
United States of America

CHARLESTON, SOUTH CAROLINA


Home > North America > United States > South Carolina
Elevation: 41 feet     Latitude: 32 54N     Longitude: 080 02W

WEATHER
 
SELECT A DAY
Number of Records: 203,837;   Date Range: 1/1/95 - 7/27/14
 
SHARE

PRINT THIS DATA

[ ← Previous Day ]
WEATHER ALMANAC - JANUARY 31, 2013
[ Next Day → ]
[ °C ]   °F
Weather ElementAverageHighLow
Temperature49.9 °F55.9 °F (1:56 pm)42.1 °F (11:56 pm)
Dewpoint31.1 °F52 °F (12:56 am)19 °F (5:56 pm)
Humidity52.5 %94 % (1:21 am)25 % (3:56 pm)
Barometer29.98 in30.20 in (11:56 pm)29.75 in (1:21 am)
Wind Speed12.8 mph17.3 mph (5:56 am)
Wind Gust36.8 mph (5:56 am)
Weather ElementAverage
Visibility9.6 mi
Wind DirectionW (264.6 °)

Weather ElementTotal
Precipitation0.13 in
Heating Degree Days16 (Base 65)
Averaged from 26 records on January 31, 2013
WEATHER CONDITIONS BREAKOUT
WIND DIRECTION BREAKOUT
WEATHER BY HOUR - JANUARY 31, 2013
[ °C ]   °F
Local TimeTemperatureDewpointHumidityBarometerVisibilityWind DirectionWind SpeedGust SpeedPrecipitationEventsConditions
12:56 AM55.0 °F52.0 °F89 %29.76 in7.0 miWSW (250°)16.1 mph25.3 mph0.01 inRainLight Rain
1:21 AM53.6 °F51.8 °F94 %29.75 in7.0 miSW (230°)10.4 mph0.03 inRainLight Rain
1:32 AM53.6 °F51.8 °F94 %29.76 in5.0 miWSW (240°)15.0 mph21.9 mph0.04 inRainRain
1:56 AM53.1 °F50.0 °F89 %29.78 in10.0 miWSW (240°)13.8 mph19.6 mph0.05 inOvercast
2:56 AM53.1 °F48.0 °F83 %29.80 in10.0 miWSW (250°)12.7 mph21.9 mphOvercast
3:56 AM52.0 °F46.9 °F83 %29.82 in10.0 miWest (260°)16.1 mph24.2 mphScattered Clouds
4:56 AM51.1 °F42.1 °F71 %29.84 in10.0 miWest (260°)15.0 mph23.0 mphScattered Clouds
5:56 AM48.0 °F33.1 °F56 %29.89 in10.0 miWest (280°)17.3 mph36.8 mphPartly Cloudy
6:56 AM46.0 °F30.0 °F54 %29.93 in10.0 miWest (270°)12.7 mph20.7 mphClear
7:56 AM46.0 °F30.9 °F56 %29.96 in10.0 miWest (280°)11.5 mph24.2 mphPartly Cloudy
8:56 AM46.9 °F30.9 °F54 %30.01 in10.0 miWNW (290°)17.3 mph25.3 mphPartly Cloudy
9:56 AM46.9 °F25.0 °F42 %30.01 in10.0 miWNW (290°)16.1 mph24.2 mphPartly Cloudy
10:56 AM50.0 °F24.1 °F36 %30.04 in10.0 miWest (280°)9.2 mph27.6 mphClear
11:56 AM51.1 °F23.0 °F33 %30.03 in10.0 miWest (280°)12.7 mph23.0 mphClear
12:56 PM54.0 °F23.0 °F30 %30.01 in10.0 miWNW (290°)16.1 mph25.3 mphClear
1:56 PM55.9 °F21.9 °F27 %30.01 in10.0 miWest (280°)16.1 mph23.0 mphClear
2:56 PM55.0 °F21.0 °F27 %30.02 in10.0 miWest (270°)13.8 mph24.2 mphClear
3:56 PM55.0 °F19.9 °F25 %30.03 in10.0 miWest (280°)17.3 mph31.1 mphClear
4:56 PM55.0 °F21.0 °F27 %30.06 in10.0 miWest (260°)16.1 mph21.9 mphClear
5:56 PM52.0 °F19.0 °F27 %30.08 in10.0 miWest (270°)12.7 mphClear
6:56 PM48.0 °F21.0 °F34 %30.11 in10.0 miWest (260°)6.9 mphPartly Cloudy
7:56 PM45.0 °F24.1 °F44 %30.12 in10.0 miWSW (240°)5.8 mphPartly Cloudy
8:56 PM44.1 °F24.1 °F45 %30.14 in10.0 miWSW (250°)8.1 mphClear
9:56 PM43.0 °F25.0 °F49 %30.17 in10.0 miWest (260°)8.1 mphScattered Clouds
10:56 PM43.0 °F24.1 °F47 %30.19 in10.0 miWest (260°)8.1 mphScattered Clouds
11:56 PM42.1 °F24.1 °F49 %30.20 in10.0 miWest (260°)6.9 mphScattered Clouds
Hourly data recorded from KCHS, located miles away from Charleston, South Carolina







STORIES FROM OUR PARTNERS